SCP
0 0 0 0 0 0 0 0 0 0 0 0 0 -0 0 0 0 0 0 0 0 0 0 0 0 0 0 0 0 0 0 0 0 0 0 0 0 0 0 0 0 0 0 0
0 0 0 0 0 0 0 0 0 0 0 0 0 0 0 0 0 0 0 0 0 0 0 0 0 0 0 0 0 0 0 0 0 0 0 0 0 0 0 -0 0 0 0 0
0 0 0 0 0 0 0 0 0 0 0 0 0 0 0 0 0 0 0 0 0 0 0 0 0 0 0 0 0 0 0 0 0 0 0 0 0 0 0 0 0 0 0 0
0 0 0 0 0 0 0 0 0 0 0 0 0 0 0 0 0 0 0 0 0 0 0 0 0 0 0 0 0 0 0 0 0 0 0 0 0 0 0 0 0 0 0 0
0 0 0 0 0 0 0 0 0 0 0 0 0 0 0 0 0 0 0 0 0 0 0 0 0 0 0 0 0 0 0 0 0 0 0 0 0 0 0 0 0 0 0 0
0 0 0 0 0 0 0 0 0 0 0 0 0 0 0 0 0 0 0 0 0 0 0 0 0 0 0 0 0 0 0 0 0 0 0 0 0 0 0 0 0 0 0 0
0 0 0 0 0 0 0 0 0 0 0 0 0 0 0 0 0 0 0 0 0 0 0 0 0 0 0 0 0 0 0 0 0 0 0 0 0 0 0 0 0 0 0 0
0 0 0 0 0 0 0 0 0 0 0 0 0 0 0 0 0 0 0 0 0 0 0 0 0 0 0 0 0 0 0 0 0 0 0 0 0 0 0 0 0 0 0 0
0 0 0 0 0 0 0 0 0 0 0 0 0 0 0 0 0 0 0 0 0 0 0 0 0 0 0 0 0 0 0 0 0 0 0 0 0 0 0 0 0 0 0 0
0 0 0 0 0 0 0 0 0 0 0 0 0 0 0 0 0 0 0 0 0 0 0 0 0 0 0 0 0 0 0 0 0 0 0 0 0 0 0 0 0 0 0 0
0 0 0 0 0 0 0 0 0 0 0 0 0 0 0 0 0 0 0 0 0 0 0 0 0 0 0 0 0 0 0 0 0 0 0 0 0 0 0 0 0 0 0 0
0 0 0 0 0 0 0 0 0 0 0 0 0 0 0 0 0 0 0 0 0 0 0 0 0 0 0 0 0 0 0 0 0 0 0 0 0 0 0 0 0 0 0 0
0 0 0 0 0 0 0 0 0 0 0 -0 0 0 0 0 0 0 0 0 0 0 0 0 0 0 0 0 0 0 0 0 0 0 0 0 0 0 0 0 0 0 0 0
0 0 0 0 0 0 0 0 0 0 0 0 0 0 0 0 0 0 0 0 0 0 0 0 0 0 0 0 0 0 0 0 0 0 0 0 0 0 0 0 0 0 0 0
0 0 0 0 0 0 0 0 0 0 0 0 0 0 0 0 -0 0 0 0 0 0 0 0 0 0 0 0 0 0 0 0 0 0 0 0 0 0 0 0 0 0 0 0
0 0 0 0 0 0 0 0 0 0 0 0 0 0 0 0 0 0 0 0 0 0 0 0 0 0 0 0 0 0 0 0 0 0 0 0 0 0 0 0 0 0 0 -0
0 0 0 0 0 0 0 0 0 0 0 0 0 0 0 0 0 0 0 0 0 0 0 0 0 0 0 0 0 0 0 0 0 0 0 0 0 0 0 0 0 0 0 0
-0 0 0 0 -0 0 0 0 0 0 0 0 0 0 0 0 0 0 0 0 0 0 0 0 0 0 0 0 0 0 0 0 0 0 0 0 0 0 0 0 0 -0 -0 -0
0 -0 -0 0 0 0 0 0 0 0 0 0 0 0 0 0 0 0 0 0 0 0 0 0 0 0 -0 0 -0 0 0 0 0 0 0 0 0 0 0 -0 -0 -0 -0 -0
0 -0 0 0 -0 -0 0 0 0 0 0 0 0 0 0 0 0 0 0 0 0 0 0 0 0 0 -0 -0 0 0 0 0 0 0 0 0 0 0 -0 -0 -0 -0 -0 -0
-0 -0 -0 0 0 0 0 0 0 0 0 -0 -0 0 0 0 0 0 0 0 0 -0 0 -0 -0 -0 0 0 0 0 0 0 0 0 0 0 0 -0 -0 -0 -0 0 0 0
-0 -0 0 0 -0 -0 0 0 0 -0 -0 -0 -0 0 0 0 0 0 0 0 0 -0 0 -0 0 0 0 0 0 0 0 0 0 0 0 0 0 0 -0 -0 0 0 0 0
0 0 -0 0 -0 0 0 0 0 -0 -0 -0 -0 0 0 0 0 0 0 -0 -0 0 0 -0 0 0 0 0 0 0 0 0 0 0 -0 -0 -0 -0 0 0 0 0 0 0
0 0 0 0 0 -0 -0 0 0 -0 -0 -0 -0 0 0 0 -0 -0 0 0 0 0 -0 -0 0 0 0 0 0 -0 -0 -0 -0 -0 -0 -0 -0 0 0 -0 -0 -0 0 0
0 0 0 0 -0 0 0 0 0 -0 -0 -0 0 0 0 0 0 0 0 0 0 0 0 0 0 0 0 -0 -0 0 0 0 0 -0 -0 0 0 0 -0 -0 -0 0 0 -0
0 0 0 0 0 0 -0 -0 -0 0 0 0 0 -0 0 -0 0 0 0 0 -0 0 0 0 0 -0 -0 -0 0 0 0 -0 -0 -0 -0 0 0 0 -0 -0 0 0 0 0
0 0 0 -0 -0 0 -0 0 0 0 0 -0 -0 0 0 0 0 0 -0 -0 -0 -0 -0 0 -0 -0 -0 -0 -0 0 0 -0 0 -0 -0 -0 -0 -0 0 -0 0 0 0 -0
Wind_Speed_500mb
48 46 42 44 52 49 33 5 6 20 26 6 10 7 2 20 4 16 4 3 7 10 13 8 9 5 11 16 11 7 4 3 5 9 21 20 13 14 2 4 10 5 6 21
47 42 36 38 41 45 50 25 13 19 24 5 7 8 20 24 3 12 12 10 12 11 5 6 10 11 26 21 11 7 5 4 6 13 10 14 9 15 10 8 4 8 9 8
45 38 35 32 34 36 38 11 6 8 24 30 11 4 12 13 18 5 6 11 12 2 6 8 5 7 6 11 15 15 9 3 9 9 13 15 14 20 20 9 5 3 16 29
37 35 32 29 29 26 31 6 6 18 6 8 10 12 17 19 9 13 11 4 2 10 5 13 8 2 15 2 29 11 5 4 9 15 21 27 31 30 27 32 28 25 27 37
33 32 28 28 25 22 7 11 11 22 24 29 7 5 9 15 14 8 10 7 17 17 6 6 12 11 9 6 3 7 6 2 8 9 24 31 39 35 38 37 39 44 39 45
32 28 24 24 21 19 6 18 18 12 16 15 8 6 7 17 10 2 11 16 6 8 14 21 23 21 19 15 7 5 8 2 3 5 15 26 19 30 30 32 35 25 33 13
30 28 23 20 20 16 10 8 16 9 8 13 15 14 6 7 20 7 21 14 8 13 19 27 30 39 38 30 21 22 14 11 7 8 12 7 13 24 26 23 18 22 19 19
28 26 23 20 19 18 15 4 10 6 6 19 24 31 15 19 20 3 13 17 15 15 16 7 12 7 6 22 34 23 19 10 4 5 7 17 23 8 10 10 6 20 17 12
29 24 18 20 19 18 17 11 11 5 5 5 25 18 26 10 9 10 18 17 13 9 2 2 5 6 3 6 6 10 19 13 11 6 6 9 2 14 24 8 3 13 16 16
28 22 12 18 19 16 15 14 9 6 6 5 21 10 9 13 13 5 15 10 6 4 0 2 6 8 12 5 12 8 4 3 14 12 8 12 10 28 13 9 2 18 15 19
23 18 14 18 17 13 13 17 13 11 6 25 24 14 12 9 8 4 9 10 4 2 1 3 4 4 6 7 7 8 10 11 7 6 8 15 12 16 5 9 18 20 19 20
18 15 12 13 12 13 13 12 14 13 13 15 19 26 19 18 9 9 8 7 14 7 3 5 4 6 7 9 5 8 4 9 3 12 9 8 23 18 17 18 12 23 30 34
14 10 7 6 6 9 9 12 14 12 14 36 34 35 15 9 36 33 11 7 5 3 6 5 5 8 5 4 6 9 8 9 2 2 10 6 14 17 20 24 19 25 31 36
13 11 10 7 8 8 11 14 15 12 3 6 15 18 23 20 19 32 36 23 12 4 5 7 3 3 9 5 10 13 14 15 11 12 8 8 10 14 13 18 19 29 30 32
13 12 11 7 7 10 14 17 22 22 12 6 17 37 20 16 31 32 30 29 21 9 6 3 5 8 8 9 12 18 22 6 1 5 25 22 20 17 18 24 31 29 29 33
12 12 9 9 9 11 11 8 10 23 27 3 6 14 13 25 36 35 31 25 18 9 10 5 8 11 3 7 7 14 10 5 15 12 16 13 16 23 30 27 31 29 25 41
5 6 11 13 15 12 9 7 11 6 35 4 7 9 11 27 39 26 27 23 10 9 9 8 8 11 11 5 12 20 44 41 30 3 6 8 19 28 36 35 20 28 31 32
11 15 18 15 14 21 22 25 19 5 12 9 4 8 5 29 19 13 14 11 12 10 9 6 9 10 13 10 22 34 33 5 7 4 11 20 24 25 25 32 38 36 38 38
15 19 15 14 5 9 8 10 6 22 10 6 8 5 2 6 6 11 8 9 3 8 5 7 8 5 12 14 27 9 9 4 2 12 18 22 23 32 37 38 34 37 34 38
20 13 3 2 3 6 8 12 12 11 9 12 7 14 3 9 23 7 10 7 4 5 10 9 7 7 36 36 23 6 7 3 5 17 20 20 27 32 34 30 32 32 34 45
4 4 3 13 22 13 7 4 5 7 6 12 14 23 8 1 1 5 9 5 4 5 5 5 6 6 3 11 12 12 3 5 9 14 14 22 26 31 28 30 35 30 38 49
3 5 7 18 6 3 3 5 6 8 7 19 10 10 12 5 4 6 6 2 4 9 16 5 5 3 19 23 11 3 5 7 10 20 23 24 26 31 30 34 29 35 47 51
4 2 4 6 6 5 8 10 7 6 12 15 17 6 6 6 5 4 3 5 9 12 7 6 3 13 20 9 3 4 16 18 23 25 23 26 26 29 31 29 34 48 47 56
3 3 5 7 8 10 9 4 5 4 18 30 28 9 5 4 3 4 4 7 5 5 6 3 0 19 11 5 23 27 26 25 26 25 26 27 30 31 34 33 41 45 39 59
4 5 7 13 23 19 4 19 24 28 32 23 17 9 4 2 4 6 7 7 7 3 4 4 21 13 16 29 29 26 24 23 25 28 27 30 32 34 31 32 45 32 41 59
5 8 9 20 16 18 12 20 31 24 22 17 11 5 5 6 6 8 8 6 3 3 3 24 15 36 28 30 22 22 23 23 27 30 32 36 35 37 34 33 56 37 40 53
7 10 21 35 33 11 9 12 14 14 14 3 3 6 8 4 5 5 3 4 6 13 30 23 24 26 28 23 21 23 23 25 27 33 32 31 43 35 52 38 50 50 43 41
Wind_Direction_500mb
325 324 326 336 338 337 341 336 267 190 184 165 223 254 295 279 82 107 252 272 350 48 41 13 1 49 53 68 33 358 75 41 285 266 287 284 297 288 22 151 265 279 212 248
320 322 325 331 340 342 345 335 274 198 188 239 236 27 325 284 354 46 9 23 59 72 68 42 355 29 105 79 41 41 349 14 331 308 296 36 47 333 342 121 84 220 239 271
313 319 322 326 333 334 338 318 296 183 204 234 282 272 196 252 91 124 60 18 43 336 294 144 223 347 84 120 96 106 51 277 206 223 289 322 294 291 291 214 235 257 242 276
307 308 318 320 323 329 330 257 303 5 329 14 343 12 320 315 138 58 67 302 242 79 19 9 332 44 355 68 154 125 115 198 300 299 305 300 287 281 271 269 265 238 268 264
303 304 311 316 318 331 347 322 358 341 301 315 327 271 260 263 85 49 98 36 45 56 36 294 304 349 14 268 134 77 50 289 360 286 273 268 270 263 258 255 258 264 275 275
299 299 305 315 316 337 347 350 335 342 294 310 310 290 79 60 59 305 49 32 14 7 35 354 333 306 274 246 222 105 121 121 308 251 329 328 307 256 258 259 256 252 264 307
300 296 294 299 310 313 324 3 355 314 293 308 329 317 72 37 65 14 360 339 2 39 359 325 299 265 249 248 247 203 158 165 142 271 311 257 247 308 296 301 18 359 30 41
299 294 293 282 287 289 283 314 351 346 296 329 331 352 194 121 98 298 271 66 62 18 350 313 309 257 168 236 221 211 183 138 208 230 204 287 298 329 7 50 29 21 26 21
312 306 294 292 275 270 265 242 266 254 305 49 338 320 38 32 48 339 100 80 50 42 280 270 272 291 337 141 59 74 175 163 173 175 224 248 308 16 337 77 227 21 15 345
313 312 286 291 283 264 260 231 251 253 281 30 31 18 350 21 17 15 18 15 36 21 313 252 251 248 302 301 136 173 111 45 218 240 260 274 329 333 55 260 210 324 345 353
309 305 280 275 283 273 266 255 253 249 264 278 301 315 327 344 49 57 358 333 223 280 247 256 283 303 294 322 130 188 176 170 189 190 233 256 30 2 354 276 326 342 344 358
312 303 296 290 262 260 261 275 257 266 257 257 276 274 265 243 246 238 213 315 337 352 3 352 317 292 325 328 287 343 294 193 210 186 222 302 315 235 26 28 10 357 346 339
307 304 291 293 286 272 257 253 280 283 296 288 274 270 274 282 239 218 210 209 263 323 28 357 255 263 328 287 274 313 318 78 184 346 267 335 10 70 19 354 335 333 327 323
297 294 292 270 277 252 254 254 265 255 257 278 286 289 276 255 206 191 215 224 209 220 357 55 342 274 282 285 286 297 263 293 234 251 274 310 46 342 332 325 321 318 314 319
287 287 296 289 284 262 282 270 263 244 222 311 296 296 284 203 193 205 204 221 226 191 128 154 228 268 288 292 271 264 250 268 47 275 321 286 289 348 344 329 315 308 311 314
281 289 279 268 287 285 304 301 275 229 225 260 308 299 261 210 198 204 201 207 202 159 146 192 232 244 261 262 268 269 151 236 253 206 268 290 328 318 318 309 309 305 315 327
292 305 289 273 273 263 242 294 9 203 207 125 284 271 312 202 170 161 176 188 182 166 183 221 246 254 214 254 251 272 296 301 300 100 352 323 316 306 317 313 345 343 343 345
307 302 302 282 263 274 274 254 263 263 149 180 269 268 278 152 151 137 165 155 182 202 200 217 231 251 188 250 249 265 274 297 56 20 325 313 316 328 345 354 351 351 351 337
310 317 308 284 259 211 225 254 242 191 189 212 225 263 191 172 102 116 117 168 177 204 221 225 237 218 226 232 252 333 51 105 353 326 333 353 359 351 352 349 352 355 347 332
294 301 296 350 214 196 144 142 171 203 219 220 244 295 280 157 180 128 122 154 217 229 215 212 222 253 250 256 245 141 122 80 329 339 336 11 359 347 344 2 7 1 339 341
292 201 234 164 152 157 171 140 194 183 233 214 231 226 255 84 343 110 183 169 191 262 170 239 214 244 40 59 169 140 119 321 328 323 32 14 358 346 9 18 9 353 349 349
255 258 150 174 201 215 227 194 197 206 244 181 208 160 149 98 54 111 162 219 175 247 150 243 254 132 115 90 75 26 272 314 36 37 24 10 8 11 20 19 15 2 354 354
278 186 150 177 172 223 231 197 198 213 208 168 136 93 89 88 89 92 128 225 234 147 199 227 129 130 91 126 230 4 82 54 42 33 27 17 15 21 23 25 8 354 359 3
285 193 219 228 185 235 215 144 305 133 119 111 107 86 71 106 167 121 229 240 256 238 227 102 120 112 128 105 67 76 62 52 44 42 32 28 39 40 27 14 5 3 8 9
265 253 251 224 245 277 251 202 123 110 126 121 104 96 122 143 223 209 238 234 235 292 91 131 139 145 99 90 73 64 59 55 50 44 41 46 40 36 34 15 14 19 12 15
252 243 271 273 300 7 48 127 113 131 137 127 130 134 186 203 226 216 226 271 20 123 106 127 136 109 91 85 82 73 70 67 70 56 56 46 48 38 35 18 24 32 10 15
252 250 255 261 273 291 241 150 141 159 136 126 124 190 221 209 229 206 175 203 132 202 130 129 112 104 102 99 91 88 84 74 76 60 63 50 47 42 41 32 21 34 28 15
Wind_Speed_850mb
48 46 42 44 52 49 33 5 6 20 26 6 10 7 2 20 4 16 4 3 7 10 13 8 9 5 11 16 11 7 4 3 5 9 21 20 13 14 2 4 10 5 6 21
47 42 36 38 41 45 50 25 13 19 24 5 7 8 20 24 3 12 12 10 12 11 5 6 10 11 26 21 11 7 5 4 6 13 10 14 9 15 10 8 4 8 9 8
45 38 35 32 34 36 38 11 6 8 24 30 11 4 12 13 18 5 6 11 12 2 6 8 5 7 6 11 15 15 9 3 9 9 13 15 14 20 20 9 5 3 16 29
37 35 32 29 29 26 31 6 6 18 6 8 10 12 17 19 9 13 11 4 2 10 5 13 8 2 15 2 29 11 5 4 9 15 21 27 31 30 27 32 28 25 27 37
33 32 28 28 25 22 7 11 11 22 24 29 7 5 9 15 14 8 10 7 17 17 6 6 12 11 9 6 3 7 6 2 8 9 24 31 39 35 38 37 39 44 39 45
32 28 24 24 21 19 6 18 18 12 16 15 8 6 7 17 10 2 11 16 6 8 14 21 23 21 19 15 7 5 8 2 3 5 15 26 19 30 30 32 35 25 33 13
30 28 23 20 20 16 10 8 16 9 8 13 15 14 6 7 20 7 21 14 8 13 19 27 30 39 38 30 21 22 14 11 7 8 12 7 13 24 26 23 18 22 19 19
28 26 23 20 19 18 15 4 10 6 6 19 24 31 15 19 20 3 13 17 15 15 16 7 12 7 6 22 34 23 19 10 4 5 7 17 23 8 10 10 6 20 17 12
29 24 18 20 19 18 17 11 11 5 5 5 25 18 26 10 9 10 18 17 13 9 2 2 5 6 3 6 6 10 19 13 11 6 6 9 2 14 24 8 3 13 16 16
28 22 12 18 19 16 15 14 9 6 6 5 21 10 9 13 13 5 15 10 6 4 0 2 6 8 12 5 12 8 4 3 14 12 8 12 10 28 13 9 2 18 15 19
23 18 14 18 17 13 13 17 13 11 6 25 24 14 12 9 8 4 9 10 4 2 1 3 4 4 6 7 7 8 10 11 7 6 8 15 12 16 5 9 18 20 19 20
18 15 12 13 12 13 13 12 14 13 13 15 19 26 19 18 9 9 8 7 14 7 3 5 4 6 7 9 5 8 4 9 3 12 9 8 23 18 17 18 12 23 30 34
14 10 7 6 6 9 9 12 14 12 14 36 34 35 15 9 36 33 11 7 5 3 6 5 5 8 5 4 6 9 8 9 2 2 10 6 14 17 20 24 19 25 31 36
13 11 10 7 8 8 11 14 15 12 3 6 15 18 23 20 19 32 36 23 12 4 5 7 3 3 9 5 10 13 14 15 11 12 8 8 10 14 13 18 19 29 30 32
13 12 11 7 7 10 14 17 22 22 12 6 17 37 20 16 31 32 30 29 21 9 6 3 5 8 8 9 12 18 22 6 1 5 25 22 20 17 18 24 31 29 29 33
12 12 9 9 9 11 11 8 10 23 27 3 6 14 13 25 36 35 31 25 18 9 10 5 8 11 3 7 7 14 10 5 15 12 16 13 16 23 30 27 31 29 25 41
5 6 11 13 15 12 9 7 11 6 35 4 7 9 11 27 39 26 27 23 10 9 9 8 8 11 11 5 12 20 44 41 30 3 6 8 19 28 36 35 20 28 31 32
11 15 18 15 14 21 22 25 19 5 12 9 4 8 5 29 19 13 14 11 12 10 9 6 9 10 13 10 22 34 33 5 7 4 11 20 24 25 25 32 38 36 38 38
15 19 15 14 5 9 8 10 6 22 10 6 8 5 2 6 6 11 8 9 3 8 5 7 8 5 12 14 27 9 9 4 2 12 18 22 23 32 37 38 34 37 34 38
20 13 3 2 3 6 8 12 12 11 9 12 7 14 3 9 23 7 10 7 4 5 10 9 7 7 36 36 23 6 7 3 5 17 20 20 27 32 34 30 32 32 34 45
4 4 3 13 22 13 7 4 5 7 6 12 14 23 8 1 1 5 9 5 4 5 5 5 6 6 3 11 12 12 3 5 9 14 14 22 26 31 28 30 35 30 38 49
3 5 7 18 6 3 3 5 6 8 7 19 10 10 12 5 4 6 6 2 4 9 16 5 5 3 19 23 11 3 5 7 10 20 23 24 26 31 30 34 29 35 47 51
4 2 4 6 6 5 8 10 7 6 12 15 17 6 6 6 5 4 3 5 9 12 7 6 3 13 20 9 3 4 16 18 23 25 23 26 26 29 31 29 34 48 47 56
3 3 5 7 8 10 9 4 5 4 18 30 28 9 5 4 3 4 4 7 5 5 6 3 0 19 11 5 23 27 26 25 26 25 26 27 30 31 34 33 41 45 39 59
4 5 7 13 23 19 4 19 24 28 32 23 17 9 4 2 4 6 7 7 7 3 4 4 21 13 16 29 29 26 24 23 25 28 27 30 32 34 31 32 45 32 41 59
5 8 9 20 16 18 12 20 31 24 22 17 11 5 5 6 6 8 8 6 3 3 3 24 15 36 28 30 22 22 23 23 27 30 32 36 35 37 34 33 56 37 40 53
7 10 21 35 33 11 9 12 14 14 14 3 3 6 8 4 5 5 3 4 6 13 30 23 24 26 28 23 21 23 23 25 27 33 32 31 43 35 52 38 50 50 43 41
Wind_Direction_850mb
325 324 326 336 338 337 341 336 267 190 184 165 223 254 295 279 82 107 252 272 350 48 41 13 1 49 53 68 33 358 75 41 285 266 287 284 297 288 22 151 265 279 212 248
320 322 325 331 340 342 345 335 274 198 188 239 236 27 325 284 354 46 9 23 59 72 68 42 355 29 105 79 41 41 349 14 331 308 296 36 47 333 342 121 84 220 239 271
313 319 322 326 333 334 338 318 296 183 204 234 282 272 196 252 91 124 60 18 43 336 294 144 223 347 84 120 96 106 51 277 206 223 289 322 294 291 291 214 235 257 242 276
307 308 318 320 323 329 330 257 303 5 329 14 343 12 320 315 138 58 67 302 242 79 19 9 332 44 355 68 154 125 115 198 300 299 305 300 287 281 271 269 265 238 268 264
303 304 311 316 318 331 347 322 358 341 301 315 327 271 260 263 85 49 98 36 45 56 36 294 304 349 14 268 134 77 50 289 360 286 273 268 270 263 258 255 258 264 275 275
299 299 305 315 316 337 347 350 335 342 294 310 310 290 79 60 59 305 49 32 14 7 35 354 333 306 274 246 222 105 121 121 308 251 329 328 307 256 258 259 256 252 264 307
300 296 294 299 310 313 324 3 355 314 293 308 329 317 72 37 65 14 360 339 2 39 359 325 299 265 249 248 247 203 158 165 142 271 311 257 247 308 296 301 18 359 30 41
299 294 293 282 287 289 283 314 351 346 296 329 331 352 194 121 98 298 271 66 62 18 350 313 309 257 168 236 221 211 183 138 208 230 204 287 298 329 7 50 29 21 26 21
312 306 294 292 275 270 265 242 266 254 305 49 338 320 38 32 48 339 100 80 50 42 280 270 272 291 337 141 59 74 175 163 173 175 224 248 308 16 337 77 227 21 15 345
313 312 286 291 283 264 260 231 251 253 281 30 31 18 350 21 17 15 18 15 36 21 313 252 251 248 302 301 136 173 111 45 218 240 260 274 329 333 55 260 210 324 345 353
309 305 280 275 283 273 266 255 253 249 264 278 301 315 327 344 49 57 358 333 223 280 247 256 283 303 294 322 130 188 176 170 189 190 233 256 30 2 354 276 326 342 344 358
312 303 296 290 262 260 261 275 257 266 257 257 276 274 265 243 246 238 213 315 337 352 3 352 317 292 325 328 287 343 294 193 210 186 222 302 315 235 26 28 10 357 346 339
307 304 291 293 286 272 257 253 280 283 296 288 274 270 274 282 239 218 210 209 263 323 28 357 255 263 328 287 274 313 318 78 184 346 267 335 10 70 19 354 335 333 327 323
297 294 292 270 277 252 254 254 265 255 257 278 286 289 276 255 206 191 215 224 209 220 357 55 342 274 282 285 286 297 263 293 234 251 274 310 46 342 332 325 321 318 314 319
287 287 296 289 284 262 282 270 263 244 222 311 296 296 284 203 193 205 204 221 226 191 128 154 228 268 288 292 271 264 250 268 47 275 321 286 289 348 344 329 315 308 311 314
281 289 279 268 287 285 304 301 275 229 225 260 308 299 261 210 198 204 201 207 202 159 146 192 232 244 261 262 268 269 151 236 253 206 268 290 328 318 318 309 309 305 315 327
292 305 289 273 273 263 242 294 9 203 207 125 284 271 312 202 170 161 176 188 182 166 183 221 246 254 214 254 251 272 296 301 300 100 352 323 316 306 317 313 345 343 343 345
307 302 302 282 263 274 274 254 263 263 149 180 269 268 278 152 151 137 165 155 182 202 200 217 231 251 188 250 249 265 274 297 56 20 325 313 316 328 345 354 351 351 351 337
310 317 308 284 259 211 225 254 242 191 189 212 225 263 191 172 102 116 117 168 177 204 221 225 237 218 226 232 252 333 51 105 353 326 333 353 359 351 352 349 352 355 347 332
294 301 296 350 214 196 144 142 171 203 219 220 244 295 280 157 180 128 122 154 217 229 215 212 222 253 250 256 245 141 122 80 329 339 336 11 359 347 344 2 7 1 339 341
292 201 234 164 152 157 171 140 194 183 233 214 231 226 255 84 343 110 183 169 191 262 170 239 214 244 40 59 169 140 119 321 328 323 32 14 358 346 9 18 9 353 349 349
255 258 150 174 201 215 227 194 197 206 244 181 208 160 149 98 54 111 162 219 175 247 150 243 254 132 115 90 75 26 272 314 36 37 24 10 8 11 20 19 15 2 354 354
278 186 150 177 172 223 231 197 198 213 208 168 136 93 89 88 89 92 128 225 234 147 199 227 129 130 91 126 230 4 82 54 42 33 27 17 15 21 23 25 8 354 359 3
285 193 219 228 185 235 215 144 305 133 119 111 107 86 71 106 167 121 229 240 256 238 227 102 120 112 128 105 67 76 62 52 44 42 32 28 39 40 27 14 5 3 8 9
265 253 251 224 245 277 251 202 123 110 126 121 104 96 122 143 223 209 238 234 235 292 91 131 139 145 99 90 73 64 59 55 50 44 41 46 40 36 34 15 14 19 12 15
252 243 271 273 300 7 48 127 113 131 137 127 130 134 186 203 226 216 226 271 20 123 106 127 136 109 91 85 82 73 70 67 70 56 56 46 48 38 35 18 24 32 10 15
252 250 255 261 273 291 241 150 141 159 136 126 124 190 221 209 229 206 175 203 132 202 130 129 112 104 102 99 91 88 84 74 76 60 63 50 47 42 41 32 21 34 28 15